• în România
  • Lista ţărilor
  • Pe 7 zile
  • Temperatura apei
  • Hartă satelitară
  • Meteo pe hartă
  • Widget-uri
  • user-avatar
    Intrare

    Meteo pe oră la Slepcovka

    Astăzi, 19 August, Duminică

    Timp Temperatura Precipitaţii Vânt Presiune Umiditate
    00:00 +13°C° 0 mm 3 m/s 745 mmHg 74%
    01:00 +12°C° 0 mm 3 m/s 746 mmHg 76%
    02:00 +12°C° 0 mm 3 m/s 746 mmHg 78%
    03:00 +12°C° 0 mm 1 m/s 746 mmHg 82%
    04:00 +12°C° 0 mm 2 m/s 746 mmHg 82%
    05:00 +12°C° 0 mm 2 m/s 746 mmHg 81%
    06:00 +13°C° 0 mm 2 m/s 746 mmHg 81%
    07:00 +14°C° 0 mm 3 m/s 746 mmHg 72%
    08:00 +17°C° 0 mm 3 m/s 746 mmHg 64%
    09:00 +19°C° 0 mm 3 m/s 746 mmHg 53%
    10:00 +19°C° 0 mm 4 m/s 746 mmHg 49%
    11:00 +20°C° 0 mm 4 m/s 746 mmHg 45%
    12:00 +21°C° 0 mm 4 m/s 746 mmHg 42%
    13:00 +22°C° 0 mm 4 m/s 746 mmHg 41%
    14:00 +22°C° 0 mm 4 m/s 746 mmHg 40%
    15:00 +22°C° 0 mm 4 m/s 745 mmHg 40%
    16:00 +22°C° 0 mm 3 m/s 745 mmHg 44%
    17:00 +21°C° 0 mm 3 m/s 745 mmHg 48%
    18:00 +20°C° 0 mm 2 m/s 745 mmHg 52%
    19:00 +19°C° 0 mm 2 m/s 745 mmHg 57%
    20:00 +17°C° 0 mm 2 m/s 745 mmHg 62%
    21:00 +15°C° 0 mm 1 m/s 745 mmHg 66%
    22:00 +15°C° 0 mm 1 m/s 745 mmHg 69%
    23:00 +14°C° 0 mm 1 m/s 745 mmHg 72%

    Mâine, 20 August, Luni

    Timp Temperatura Precipitaţii Vânt Presiune Umiditate
    00:00 +14°C° 0 mm 1 m/s 745 mmHg 74%
    01:00 +13°C° 0 mm 1 m/s 745 mmHg 75%
    02:00 +13°C° 0 mm 1 m/s 745 mmHg 77%
    03:00 +13°C° 0 mm 1 m/s 745 mmHg 78%
    04:00 +13°C° 0 mm 1 m/s 745 mmHg 77%
    05:00 +13°C° 0 mm 1 m/s 745 mmHg 76%
    06:00 +14°C° 0 mm 1 m/s 745 mmHg 75%
    07:00 +16°C° 0 mm 1 m/s 745 mmHg 68%
    08:00 +19°C° 0 mm 1 m/s 745 mmHg 61%
    09:00 +20°C° 0 mm 2 m/s 745 mmHg 54%
    10:00 +21°C° 0 mm 2 m/s 745 mmHg 50%
    11:00 +23°C° 0 mm 2 m/s 745 mmHg 46%
    12:00 +24°C° 0 mm 2 m/s 745 mmHg 43%
    13:00 +25°C° 0 mm 2 m/s 744 mmHg 41%
    14:00 +25°C° 0 mm 2 m/s 744 mmHg 40%
    15:00 +26°C° 0 mm 2 m/s 744 mmHg 38%
    16:00 +25°C° 0 mm 2 m/s 743 mmHg 41%
    17:00 +25°C° 0 mm 2 m/s 743 mmHg 45%
    18:00 +24°C° 0 mm 1 m/s 743 mmHg 48%
    19:00 +23°C° 0 mm 1 m/s 743 mmHg 51%
    20:00 +21°C° 0 mm 1 m/s 743 mmHg 54%
    21:00 +19°C° 0 mm 1 m/s 743 mmHg 57%
    22:00 +19°C° 0 mm 1 m/s 743 mmHg 59%
    23:00 +19°C° 0 mm 1 m/s 743 mmHg 60%

    Poimâine, 21 August, Marţi

    Timp Temperatura Precipitaţii Vânt Presiune Umiditate
    00:00 +17°C° 0 mm 2 m/s 742 mmHg 61%
    01:00 +17°C° 0 mm 2 m/s 742 mmHg 62%
    02:00 +16°C° 0 mm 2 m/s 742 mmHg 63%
    03:00 +16°C° 0 mm 2 m/s 742 mmHg 64%
    04:00 +16°C° 0 mm 2 m/s 742 mmHg 65%
    05:00 +16°C° 0 mm 3 m/s 742 mmHg 65%
    06:00 +16°C° 0 mm 3 m/s 742 mmHg 66%
    07:00 +18°C° 0 mm 3 m/s 742 mmHg 60%
    08:00 +20°C° 0 mm 3 m/s 742 mmHg 55%
    09:00 +23°C° 0 mm 4 m/s 742 mmHg 50%
    10:00 +25°C° 0 mm 4 m/s 742 mmHg 46%
    11:00 +26°C° 0 mm 4 m/s 742 mmHg 42%
    12:00 +28°C° 0 mm 5 m/s 742 mmHg 39%
    13:00 +28°C° 0 mm 5 m/s 741 mmHg 38%
    14:00 +28°C° 0 mm 5 m/s 741 mmHg 38%
    15:00 +28°C° 0 mm 5 m/s 740 mmHg 37%
    16:00 +27°C° 0 mm 5 m/s 740 mmHg 41%
    17:00 +27°C° 0 mm 4 m/s 740 mmHg 45%
    18:00 +26°C° 0 mm 3 m/s 739 mmHg 48%
    19:00 +24°C° 0 mm 3 m/s 739 mmHg 50%
    20:00 +22°C° 0 mm 3 m/s 739 mmHg 52%
    21:00 +20°C° 0 mm 3 m/s 739 mmHg 53%
    22:00 +20°C° 0 mm 4 m/s 739 mmHg 52%
    23:00 +19°C° 0 mm 4 m/s 738 mmHg 51%

    22 August, Miercuri

    Timp Temperatura Precipitaţii Vânt Presiune Umiditate
    00:00 +19°C° 0 mm 4 m/s 738 mmHg 50%
    01:00 +19°C° 0 mm 4 m/s 738 mmHg 49%
    02:00 +19°C° 0 mm 4 m/s 737 mmHg 48%
    03:00 +19°C° 0 mm 5 m/s 737 mmHg 47%
    04:00 +17°C° 0 mm 5 m/s 737 mmHg 48%
    05:00 +18°C° 0 mm 4 m/s 737 mmHg 48%
    06:00 +18°C° 0 mm 4 m/s 737 mmHg 49%
    07:00 +18°C° 0,5 mm 4 m/s 737 mmHg 57%
    08:00 +18°C° 0,5 mm 4 m/s 737 mmHg 65%
    09:00 +18°C° 0,5 mm 4 m/s 737 mmHg 73%
    10:00 +19°C° 0,5 mm 4 m/s 737 mmHg 71%
    11:00 +20°C° 0,5 mm 4 m/s 738 mmHg 69%
    12:00 +21°C° 0,5 mm 5 m/s 738 mmHg 67%
    13:00 +22°C° 0 mm 5 m/s 738 mmHg 59%
    14:00 +22°C° 0 mm 6 m/s 738 mmHg 52%
    15:00 +23°C° 0 mm 7 m/s 739 mmHg 44%
    16:00 +22°C° 0 mm 6 m/s 739 mmHg 49%
    17:00 +21°C° 0 mm 6 m/s 739 mmHg 53%
    18:00 +20°C° 0 mm 6 m/s 740 mmHg 58%
    19:00 +17°C° 0 mm 5 m/s 740 mmHg 62%
    20:00 +16°C° 0 mm 5 m/s 741 mmHg 67%
    21:00 +14°C° 0 mm 4 m/s 741 mmHg 72%
    22:00 +14°C° 0 mm 4 m/s 742 mmHg 73%
    23:00 +13°C° 0 mm 4 m/s 742 mmHg 75%

    23 August, Joi

    Timp Temperatura Precipitaţii Vânt Presiune Umiditate
    00:00 +12°C° 0 mm 3 m/s 742 mmHg 76%
    01:00 +11°C° 0 mm 3 m/s 743 mmHg 76%
    02:00 +11°C° 0 mm 3 m/s 743 mmHg 75%
    03:00 +10°C° 0 mm 3 m/s 743 mmHg 75%
    04:00 +10°C° 0 mm 3 m/s 744 mmHg 75%
    05:00 +10°C° 0 mm 3 m/s 744 mmHg 75%
    06:00 +10°C° 0 mm 3 m/s 745 mmHg 75%
    07:00 +12°C° 0 mm 4 m/s 745 mmHg 68%
    08:00 +13°C° 0 mm 4 m/s 745 mmHg 62%
    09:00 +15°C° 0 mm 5 m/s 746 mmHg 55%
    10:00 +16°C° 0 mm 5 m/s 746 mmHg 52%
    11:00 +17°C° 0 mm 5 m/s 746 mmHg 48%
    12:00 +19°C° 0 mm 4 m/s 746 mmHg 44%
    13:00 +19°C° 0 mm 4 m/s 746 mmHg 44%
    14:00 +20°C° 0 mm 4 m/s 746 mmHg 43%
    15:00 +20°C° 0 mm 4 m/s 746 mmHg 43%
    16:00 +19°C° 0 mm 4 m/s 746 mmHg 47%
    17:00 +19°C° 0 mm 3 m/s 746 mmHg 50%
    18:00 +18°C° 0 mm 3 m/s 746 mmHg 54%
    19:00 +17°C° 0 mm 3 m/s 746 mmHg 58%
    20:00 +15°C° 0 mm 2 m/s 747 mmHg 62%
    21:00 +13°C° 0 mm 2 m/s 747 mmHg 66%
    22:00 +13°C° 0 mm 2 m/s 747 mmHg 68%
    23:00 +12°C° 0 mm 2 m/s 747 mmHg 70%

    24 August, Vineri

    Timp Temperatura Precipitaţii Vânt Presiune Umiditate
    00:00 +12°C° 0 mm 2 m/s 748 mmHg 71%
    01:00 +12°C° 0 mm 2 m/s 748 mmHg 73%
    02:00 +11°C° 0 mm 1 m/s 748 mmHg 74%
    03:00 +11°C° 0 mm 1 m/s 748 mmHg 75%
    04:00 +11°C° 0 mm 1 m/s 748 mmHg 75%
    05:00 +11°C° 0 mm 1 m/s 748 mmHg 74%
    06:00 +11°C° 0 mm 1 m/s 748 mmHg 74%
    07:00 +13°C° 0 mm 1 m/s 748 mmHg 66%
    08:00 +15°C° 0 mm 2 m/s 749 mmHg 59%
    09:00 +17°C° 0 mm 2 m/s 749 mmHg 52%
    10:00 +18°C° 0 mm 2 m/s 749 mmHg 47%
    11:00 +20°C° 0 mm 2 m/s 749 mmHg 43%
    12:00 +21°C° 0 mm 2 m/s 748 mmHg 39%
    13:00 +21°C° 0 mm 2 m/s 748 mmHg 37%
    14:00 +23°C° 0 mm 2 m/s 748 mmHg 36%
    15:00 +23°C° 0 mm 2 m/s 748 mmHg 35%
    16:00 +23°C° 0 mm 2 m/s 748 mmHg 38%
    17:00 +22°C° 0 mm 1 m/s 747 mmHg 42%
    18:00 +21°C° 0 mm 1 m/s 747 mmHg 46%
    19:00 +20°C° 0 mm 1 m/s 747 mmHg 48%
    20:00 +18°C° 0 mm 1 m/s 747 mmHg 50%
    21:00 +16°C° 0 mm 1 m/s 747 mmHg 52%
    22:00 +16°C° 0 mm 1 m/s 747 mmHg 53%
    23:00 +15°C° 0 mm 1 m/s 747 mmHg 55%
    Arată mai mult